Tracking 33404 objects as of 6-Mar-2026
HD Live streaming from Space Station
objects crossing your sky now

STARLINK-35196

Track STARLINK-35196 now!
10-day predictions
STARLINK-35196 is classified as:


NORAD ID: 66007
Int'l Code: 2025-232C
Perigee: 481.5 km
Apogee: 483.2 km
Inclination: 53.2 °
Period: 94.1 minutes
Semi major axis: 6853 km
RCS: Unknown
Launch date: October 16, 2025
Source: United States (US)
Launch site: AIR FORCE EASTERN TEST RANGE (AFETR)
Your satellite tracking list
Your tracking list is empty




NASA's NSSDC Master Catalog

Two Line Element Set (TLE):
1 66007U 25232C   26065.39612915  .00015225  00000-0  52497-3 0  9993
2 66007  53.1599 119.0468 0001247  67.3664 292.7469 15.30208130 22925
Source of the keplerian elements: AFSPC